Weather History for Yakima, WA

Change the Weather History Date:

Saturday, February 9, 2013

  Actual Average Record
Temperature  
Mean Temperature 39 °F 35 °F  
Max Temperature 52 °F 45 °F 60 °F (1951)
Min Temperature 25 °F 25 °F 6 °F (1989)
Degree Days  
Heating Degree Days 26 30  
Month to date heating degree days 227 275  
Since 1 July heating degree days 3496 3993  
Cooling Degree Days 0 0  
Month to date cooling degree days 0 0  
Year to date cooling degree days 0 0  
Moisture  
Dew Point 25 °F    
Average Humidity 61    
Maximum Humidity 81    
Minimum Humidity 41    
Precipitation  
Precipitation 0.00 in 0.03 in 0.54 in (1961)
Month to date precipitation T 0.26  
Year to date precipitation 0.10 1.40  
Snow  
Snow 0.00 in 0.10 in 4.00 in (1959)
Month to date snowfall 0.0 1.0  
Year to date snowfall 1.1 6.3  
Since 1 July snowfall 15.3 19.3  
Snow Depth 0.00 in    
Sea Level Pressure  
Sea Level Pressure 30.15 in    
Wind  
Wind Speed 5 mph (WNW)    
Max Wind Speed 13 mph    
Max Gust Speed 16 mph    
Visibility 10 miles    
Events      
T = Trace of Precipitation, MM = Missing Value Source: NWS Daily Summary

Daily Weather History Graph

Daily Weather History Graph

Search for Another Location

Airport:

Trip Planner

Search our weather history database for the weather conditions in past years. The results will help you decide how hot, cold, wet, or windy it might be!

Date:

Astronomy

Feb. 09, 2013 Rise Set
Actual Time 7:14 AM PST 5:18 PM PST
Civil Twilight 6:43 AM PST 5:50 PM PST
Nautical Twilight 6:07 AM PST 6:26 PM PST
Astronomical Twilight 5:32 AM PST 7:01 PM PST
Moon 6:28 AM PST (2/9) 5:09 PM PST (2/9)
Length of Visible Light 11h 07m
Length of Day
10h 04m
Waning Crescent, 0% of the Moon is Illuminated
Feb 9
Waning Crescent
Feb 9
New
Feb 17
First Quarter
Feb 25
Full
Mar 4
Last Quarter

Hourly Weather History & Observations

Time (PST) Temp. Windchill Dew Point Humidity Pressure Visibility Wind Dir Wind Speed Gust Speed Precip Events Conditions
12:53 AM 36.0 °F 29.0 °F 23.0 °F 59% 30.15 in 10.0 mi North 9.2 mph - N/A   Clear
1:53 AM 32.0 °F 24.8 °F 21.9 °F 66% 30.15 in 10.0 mi West 8.1 mph - N/A   Clear
2:53 AM 28.0 °F 20.0 °F 21.0 °F 75% 30.16 in 10.0 mi West 8.1 mph - N/A   Clear
3:53 AM 26.1 °F 16.2 °F 19.9 °F 78% 30.14 in 10.0 mi West 10.4 mph - N/A   Clear
4:53 AM 27.0 °F 19.5 °F 21.0 °F 78% 30.14 in 10.0 mi West 6.9 mph - N/A   Clear
5:53 AM 28.9 °F 21.9 °F 21.0 °F 72% 30.14 in 10.0 mi West 6.9 mph - N/A   Clear
6:53 AM 26.6 °F 20.0 °F 19.4 °F 74% 30.12 in 10.0 mi West 5.8 mph - N/A   Clear
7:53 AM 28.0 °F 20.0 °F 21.9 °F 78% 30.17 in 10.0 mi West 8.1 mph - N/A   Clear
8:53 AM 37.0 °F 34.5 °F 27.0 °F 67% 30.16 in 10.0 mi WNW 3.5 mph - N/A   Clear
9:53 AM 37.0 °F - 26.1 °F 65% 30.15 in 10.0 mi Calm Calm - N/A   Clear
10:53 AM 42.1 °F - 27.0 °F 55% 30.16 in 10.0 mi Calm Calm - N/A   Clear
11:53 AM 48.0 °F - 27.0 °F 44% 30.13 in 10.0 mi Calm Calm - N/A   Clear
12:53 PM 50.0 °F - 28.0 °F 43% 30.10 in 10.0 mi Calm Calm - N/A   Clear
1:53 PM 50.0 °F - 28.0 °F 43% 30.09 in 10.0 mi South 5.8 mph - N/A   Clear
2:53 PM 51.1 °F - 28.9 °F 43% 30.10 in 10.0 mi Calm Calm - N/A   Clear
3:53 PM 52.0 °F - 30.0 °F 43% 30.10 in 10.0 mi NW 12.7 mph - N/A   Clear
4:53 PM 50.0 °F - 28.9 °F 44% 30.12 in 10.0 mi North 6.9 mph - N/A   Clear
5:53 PM 46.0 °F - 28.9 °F 51% 30.15 in 10.0 mi Calm Calm - N/A   Clear
6:53 PM 39.9 °F - 28.0 °F 63% 30.18 in 10.0 mi Calm Calm - N/A   Clear
7:53 PM 34.0 °F 31.0 °F 26.1 °F 73% 30.19 in 10.0 mi WNW 3.5 mph - N/A   Clear
8:53 PM 37.9 °F 35.5 °F 27.0 °F 65% 30.21 in 10.0 mi WSW 3.5 mph - N/A   Clear
9:53 PM 39.0 °F 34.8 °F 27.0 °F 62% 30.22 in 10.0 mi West 5.8 mph - N/A   Clear
10:53 PM 30.9 °F 24.3 °F 25.0 °F 79% 30.23 in 10.0 mi WNW 6.9 mph - N/A   Clear
11:53 PM 30.0 °F 25.2 °F 24.1 °F 79% 30.24 in 10.0 mi West 4.6 mph - N/A   Clear